User: anonymous   Login
Location: London
(51.5074°N, 0.1278°W)
Time: 09:42:12
(UTC+01:00)
Language:

DELFI C3 - Orbit

View from above orbital plane
View from above orbital plane
View from above satellite
View from above satellite

Ground track
Ground track

The orbit data is extracted from the following two-line orbital elements,

1 32789U 08021G   21128.82549221  .00001280  00000-0  85090-4 0  9994
2 32789  97.3792 165.7155 0009973 279.7716  80.2386 15.08850238710853
Epoch (UTC): 08 May 2021 19:48:42
Eccentricity: 0.0009973
inclination: 97.3792°
perigee height: 533 km
apogee height: 546 km
right ascension of ascending node: 165.7155°
argument of perigee: 279.7716°
revolutions per day: 15.08850238
mean anomaly at epoch: 80.2386°
orbit number at epoch: 71085

The dashed part of the orbit path shows where the satellite is in the earth's shadow,  

DLR